Вернуться в каталог

METEOSAT 5

MOP 2

АктивенПогодаGEO
NORAD 21140·PAYLOAD·🇪🇺 EU

Запущен Mar 2, 1991 с Guiana Space Centre

Loading…

TLE

СвежийSource: Space-Track

Эпоха: Sep 13, 2026, 23:58 UTC

1 21140U 91015B   26256.99929159 -.00000141  00000-0  00000-0 0  9995
2 21140  14.6267 349.3475 0011369 263.1208 119.8871  0.98452290131080

Отслеживайте METEOSAT 5 в реальном времени с AllMySat

Download on the App Store